Regional Weather Roundup
Issued by NWS

Home | Current Version | Previous Version | Graphics & Text | Print | Product List | Glossary Off
Versions: 1 2 3 4 5 6 7 8 9 10 11 12 13 14 15 16 17 18 19 20 21 22 23 24 25 26 27 28 29 30 31 32 33 34 35 36 37 38 39 40 41 42 43 44 45 46 47 48 49 50

000
ASUS43 KTOP 300408
RWRKS

WEATHER ROUNDUP FOR KANSAS
NATIONAL WEATHER SERVICE GOODLAND KS
1000 PM CST THU JAN 29 2015

NOTE:  "FAIR" INDICATES FEW OR NO CLOUDS BELOW 12,000 FEET WITH NO
SIGNIFICANT WEATHER AND/OR OBSTRUCTIONS TO VISIBILITY.

KSZ001>006-013>018-027>032-041>047-300500-
NORTHWEST KANSAS

CITY           SKY/WX    TMP DP  RH WIND       PRES   REMARKS
GOODLAND       CLEAR     26  20  77 S10       30.47S WCI  16
HAYS           FAIR      27  14  59 NW6       30.51S
HILL CITY      PTCLDY    22  15  75 W5        30.51S
RUSSELL        CLEAR     34  23  64 CALM      30.50S
$$

KSZ061>065-074>080-084>089-300500-
SOUTHWEST KANSAS

CITY           SKY/WX    TMP DP  RH WIND       PRES   REMARKS
DODGE CITY     PTCLDY    29  18  63 NE3       30.50S
ELKHART          N/A     34  21  59 S7          N/A
GARDEN CITY    FAIR      27  18  69 SE3       30.49S
LIBERAL        MOCLDY    37  19  48 E7        30.52R
PRATT          CLEAR     30  23  74 N6        30.52S
$$

KSZ066>073-081>083-090>101-300500-
SOUTHEAST KANSAS

CITY           SKY/WX    TMP DP  RH WIND       PRES   REMARKS
CHANUTE        CLEAR     32  26  78 N6        30.52R
COFFEYVILLE    CLEAR     33  26  75 N6        30.53R
HUTCHINSON     CLEAR     26  19  74 CALM      30.52S
MEDICINE LODGE   N/A     29  23  78 N5        30.52R
NEWTON         CLEAR     30  19  64 N5        30.52S
PARSONS        CLEAR     34  27  75 N6        30.53R
WICHITA INTL   FAIR      34  23  64 NW6       30.52S
WICHITA JABRA  CLEAR     33  24  69 N6        30.52R
WICHITA MCCONL CLEAR     36  25  64 N6        30.52S
WINFIELD       CLEAR     34  24  67 NE7       30.53S
$$

KSZ007>012-019>026-033>040-048>060-102>105-300500-
NORTHEAST KANSAS

CITY           SKY/WX    TMP DP  RH WIND       PRES   REMARKS
CONCORDIA      CLEAR     29  22  75 CALM      30.51S
EMPORIA        CLEAR     29  24  82 NW3       30.51S
LAWRENCE       CLEAR     24  19  81 N3        30.53S
MANHATTAN      CLEAR     25  22  88 CALM      30.52F
MARYSVILLE     CLEAR     27  23  86 CALM      30.52S
OLATHE IND     CLEAR     25  21  85 N6        30.52S
OLATHE EXE     CLEAR     31  24  75 N5        30.50S
SALINA         CLEAR     31  22  69 CALM      30.52S
TOPEKA BILLARD CLEAR     25  22  88 CALM      30.54R
TOPEKA FORBES  CLEAR     29  21  72 NW5       30.52R
$$


USA.gov is the U.S. government's official web portal to all federal, state and local government web resources and services.